Location: ?????
(44.4284°N, 135.2222°E)
Time: 06:01:47
(UTC+00:00)

Cosmos 1862 Rocket - Pass Details

Date: 19 May 2025
Orbit: 598 x 627 km, 82.5° (Epoch: 15 June)

Event Time Altitude Azimuth Distance (km) Brightness Sun altitude
Exits shadow 17:13:09 32° 176° (S) 1,064 4.3 -18.4°
Maximum altitude 17:15:08 76° 97° (E) 648 3.6 -18.2°
Drops below altitude 10° 17:19:35 10° 12° (NNE) 2,012 7.2 -17.7°
Sets 17:21:50 0° 11° (N) 2,925 8.2 -17.5°
